[Iaude] MPEC A60: 2024 AE1 [a=1.34,e=0.26,i=0.6,H=27.3]
    mpec at marsden.cfa.harvard.edu 
    mpec at marsden.cfa.harvard.edu
       
    Sat Jan  6 19:04:21 EST 2024
    
    
  
M.P.E.C. 2024-A60                               Issued 2024 January 7, 00:02 UT
     The Minor Planet Electronic Circulars contain information on unusual
         minor planets, routine data on comets and natural satellites,
         and occasional editorial announcements.  They are published
    on behalf of Division F of the International Astronomical Union by the
          Minor Planet Center, Smithsonian Astrophysical Observatory,
                          Cambridge, MA 02138, U.S.A.
			  
             Prepared using the Tamkin Foundation Computer Network
                              MPC at CFA.HARVARD.EDU
            URL https://www.minorplanetcenter.net/    ISSN 1523-6714
                                    2024 AE1                                    
Observations:
     K24A01E  C2023 12 26.38000403 19 06.422+00 45 55.66         19.60GVEA060F52
     K24A01E  C2023 12 26.39231703 19 22.873+00 46 55.17         19.47GVEA060F52
     K24A01E  C2023 12 26.40467203 19 39.457+00 47 55.08         19.63GVEA060F52
     K24A01E  C2023 12 26.41698003 19 56.146+00 48 55.21         18.84GVEA060F52
     K24A01E  C2023 12 27.40710703 47 13.480+02 14 59.56         19.11GVEA060F52
     K24A01E  C2023 12 27.41883103 47 31.600+02 16 02.95         19.30GVEA060F52
     K24A01E  C2023 12 27.41947403 47 32.613+02 16 06.73         19.99GVEA060F52
     K24A01E  C2023 12 30.43852905 28 23.357+07 10 03.61         19.05GVEA060F51
     K24A01E  C2023 12 30.45155205 28 47.958+07 11 13.46         18.96GVEA060F51
     K24A01E  C2023 12 30.46449705 29 12.418+07 12 22.16         18.92GVEA060F51
     K24A01E  C2023 12 30.47735705 29 36.942+07 13 30.14         18.68GVEA060F51
     K24A01E* C2024 01 06.42860908 36 12.805+12 17 26.04         19.67wXEA060F52
     K24A01E  C2024 01 06.43966008 36 21.496+12 17 34.56         19.70wXEA060F52
     K24A01E  C2024 01 06.48329308 36 55.284+12 18 03.94         19.85wXEA060F52
     K24A01E  C2024 01 06.60619608 38 29.743+12 18 49.95         19.40GVEA060F51
     K24A01E  C2024 01 06.60701008 38 30.358+12 18 50.00         19.26GVEA060F51
     K24A01E KC2024 01 06.61020808 38 48.533+12 26 23.21         19.6 GVEA060474
     K24A01E KC2024 01 06.61082308 38 49.037+12 26 23.46         19.8 GVEA060474
     K24A01E KC2024 01 06.61143808 38 49.500+12 26 23.71         19.7 GVEA060474
     K24A01E KC2024 01 06.61205208 38 49.987+12 26 23.82         19.4 GVEA060474
     K24A01E KC2024 01 06.61266608 38 50.462+12 26 24.29         19.7 GVEA060474
     K24A01E KC2024 01 06.61328008 38 50.964+12 26 24.72         19.7 GVEA060474
     K24A01E  C2024 01 06.74574 08 40 47.54 +12 18 31.6          20.0 RmEA060P93
     K24A01E  C2024 01 06.75108 08 40 51.60 +12 18 33.3          19.7 RmEA060P93
     K24A01E  C2024 01 06.75287 08 40 52.95 +12 18 33.9          19.9 RmEA060P93
     K24A01E KB2024 01 06.95550208 44 15.63 +12 18 49.3          20.0 GXEA060I93
     K24A01E KB2024 01 06.95799408 44 17.53 +12 18 51.5          20.4 GXEA060I93
     K24A01E KB2024 01 06.96047308 44 19.47 +12 18 53.0          19.1 GXEA060I93
Observer details:
474 Mount John Observatory, Lake Tekapo.  Observers A. C. Gilmore, P. M.
    Kilmartin.  Measurer P. M. Kilmartin.  1.0-m f/7.7 Reflector + CCD.
F51 Pan-STARRS 1, Haleakala.  Observers J. Herman, T. Lowe, P. Minguez, A.
    Schultz, I. Smith.  Measurers K. Chambers, T. de Boer, J. Fairlamb, H.
    Gao, M. Huber, C.-C. Lin, E. Magnier, Y. Ramanjooloo, R. Wainscoat, R.
    Weryk.  1.8-m Ritchey-Chretien + CCD.
F52 Pan-STARRS 2, Haleakala.  Observers J. Herman, T. Lowe, P. Minguez, A.
    Schultz, I. Smith.  Measurers K. Chambers, T. de Boer, J. Fairlamb, H.
    Gao, M. Huber, C.-C. Lin, E. Magnier, Y. Ramanjooloo, R. Wainscoat, R.
    Weryk.  1.8-m Ritchey-Chretien + CCD.
I93 St Pardon de Conques.  Observer F. Losse.  0.40-m f/3.7 reflector + CMO.
P93 Space Tracking and Communications Center, JAXA.  Observers S. Okumura, T.
    Fujiwara.  1.0-m f/3.0 reflector + CCD.
Orbital elements:
2024 AE1                                                 Earth MOID = 0.0097 AU
Epoch 2023 Sept. 13.0 TT = JDT 2460200.5                Veres                   
M 296.33248              (2000.0)            P               Q                  
n   0.63257699     Peri.  331.03050     +0.01424215     -0.99985313             
a   1.3439830      Node   118.15203     +0.91945943     +0.00934940             
e   0.2611338      Incl.    0.61948     +0.39292687     +0.01436314             
P   1.56           H   27.31          G   0.15           U   6                  
Residuals in seconds of arc
231226 F52  0.1-  0.0     231230 F51  0.0   0.0     240106 474  0.2-  0.2-
231226 F52  0.2+  0.2-    240106 F52  0.1-  0.1+    240106 474  0.0   0.0
231226 F52  0.3-  0.2-    240106 F52  0.2-  0.0     240106 P93  0.1-  0.2+
231226 F52  0.5-  0.1+    240106 F52  0.1+  0.0     240106 P93  0.0   0.1+
231227 F52  0.5+  0.2+    240106 F51  0.4+  0.0     240106 P93  0.2-  0.2+
231227 F52  0.1-  0.1-    240106 F51  0.0   0.0     240106 I93  0.1-  0.1-
231227 F52  0.1+  0.2+    240106 474  0.1-  0.3-    240106 I93  0.6-  0.4+
231230 F51  0.0   0.0     240106 474  0.2+  0.3-    240106 I93  0.3-  0.1+
231230 F51  0.4+  0.0     240106 474  0.1-  0.3-
231230 F51  0.6-  0.2-    240106 474  0.1-  0.4-
Ephemeris:
2024 AE1                 a,e,i = 1.34, 0.26, 1                   q = 0.9930
Date    TT    R. A. (2000) Decl.     Delta      r    Elong.  Phase     V
2023 12 08    00 35 05.2 -06 49 58   0.04498 1.0013   109.7    67.8    23.0
...
2023 12 23    02 11 33.6 -02 43 23   0.01940 0.9930   118.1    60.9    20.9
...
2023 12 31    05 48 29.3 +08 02 35   0.01301 0.9956   160.8    18.9    18.8
...
2024 01 06    08 28 56.6 +12 14 21   0.01886 1.0008   157.3    22.2    19.8
2024 01 07    08 44 39.8 +12 23 14   0.02040 1.0019   155.0    24.5    20.0
2024 01 08    08 58 03.3 +12 28 44   0.02202 1.0031   153.1    26.3    20.2
...
2024 01 14    09 46 55.7 +12 37 20   0.03287 1.0117   148.3    30.8    21.2
...
2024 01 22    10 12 49.5 +12 46 04   0.04899 1.0270   150.5    28.2    22.1
...
2024 02 06    10 23 51.3 +13 24 22   0.08336 1.0661   163.2    15.5    22.9
M. P. C. Staff               (C) Copyright 2024 MPC           M.P.E.C. 2024-A60
    
    
More information about the Iaude
mailing list